Regional Weather Roundup
Issued by NWS

Home | Current Version | Previous Version | Graphics & Text | Print | Product List | Glossary On
Versions: 1 2 3 4 5 6 7 8 9 10 11 12 13 14 15 16 17 18 19 20 21 22 23 24 25 26 27 28 29 30 31 32 33 34 35 36 37 38 39 40 41 42 43 44 45 46 47 48 49 50
073
ASUS43 KLSX 160557
RWRMO

WEATHER SUMMARY FOR MISSOURI
NATIONAL WEATHER SERVICE SPRINGFIELD MO
1200 AM CST MON JAN 16 2017

NOTE: "FAIR" INDICATES FEW OR NO CLOUDS BELOW 12,000 FEET WITH NO
       SIGNIFICANT WEATHER AND/OR OBSTRUCTIONS TO VISIBILITY.
       CURRENT SKY AND/OR WEATHER CONDITIONS ARE NOT AVAILABLE FOR
       CHILLICOTHE AND FARMINGTON.

MOZ001>031-035>038-043-044-053-054-160700-
...NORTHERN AND WESTERN MISSOURI...

CITY           SKY/WX    TMP DP  RH WIND       PRES   REMARKS
KANSAS CTY INT DRZL/FOG  33  30  88 E13       30.09F VSB 1/2 WCI  24
6HR MIN TEMP:  32; 6HR MAX TEMP:  33; 6HR PCP:  0.07;

LEE`S SUMMIT   FOG       33  32  96 E8        30.10F VSB 1/4 WCI  26
6HR MIN TEMP:  32; 6HR MAX TEMP:  33;

ST JOSEPH      MIX PCPN  32  32 100 E6        30.12F FOG     WCI  26
6HR MIN TEMP:  32; 6HR MAX TEMP:  32; 6HR PCP:  0.05;

CHILLICOTHE      N/A     32  32 100 E5        30.17F WCI  27
6HR MIN TEMP:  32; 6HR MAX TEMP:  32; 6HR PCP:  0.03;


$$
MOZ066>068-077>081-088>096-101>105-160700-
...SOUTHWEST MISSOURI...

CITY           SKY/WX    TMP DP  RH WIND       PRES   REMARKS
SPRINGFIELD    CLOUDY    44  43  96 SE16      30.06F
6HR MIN TEMP:  44; 6HR MAX TEMP:  44;

JOPLIN         LGT RAIN  47  47 100 MISG      30.01F
6HR MIN TEMP:  44; 6HR MAX TEMP:  47; 6HR PCP:  0.24;


$$
MOZ032>034-039>042-045>050-055>058-069>072-160700-
...CENTRAL MISSOURI...

CITY           SKY/WX    TMP DP  RH WIND       PRES   REMARKS
COLUMBIA       NOT AVBL
JEFFERSON CITY CLOUDY    35  35 100 SE7       30.17S FOG     WCI  29
6HR MIN TEMP:  34; 6HR MAX TEMP:  35;

ROLLA          FOG       33  33 100 E8        30.14F VSB 1/4 WCI  26
6HR MIN TEMP:  32; 6HR MAX TEMP:  33;

SEDALIA        FOG       35  35 100 SE12      30.13F VSB 1/2 WCI  27
6HR MIN TEMP:  35; 6HR MAX TEMP:  35;

WHITEMAN AFB   CLOUDY    36  36 100 E5        30.11S FOG
WARRENSBURG    LGT RAIN  34  32  93 NE5       30.11F VSB 1/2 WCI  30
OSAGE BEACH    CLOUDY    36  36 100 E9        30.14F FOG     WCI  29

$$
MOZ051-052-059>065-160700-
...EAST CENTRAL MISSOURI...

CITY           SKY/WX    TMP DP  RH WIND       PRES   REMARKS
ST LOUIS INTL  FOG       38  36  92 E9        30.20F VSB 1/4
6HR MIN TEMP:  36; 6HR MAX TEMP:  38; 6HR PCP: TRACE;


$$
MOZ072>076-082>087-097>100-106>115-160700-
...SOUTH CENTRAL AND SOUTHEAST MISSOURI...

CITY           SKY/WX    TMP DP  RH WIND       PRES   REMARKS
CAPE GIRARDEAU FOG       40  39  97 NE5       30.21F VSB 1
6HR MIN TEMP:  40; 6HR MAX TEMP:  40;

POPLAR BLUFF   FOG       41  41 100 NE6       30.20S VSB 1
6HR MIN TEMP:  40; 6HR MAX TEMP:  41;

WEST PLAINS    CLOUDY    39  39 100 E6        30.16S FOG

$$



USA.gov is the U.S. government's official web portal to all federal, state and local government web resources and services.